Location: Beekmeers
(50.8953°N, 3.6968°E)
Time: 02:30:54
(UTC+00:00)

Resurs 1-4 Rocket - Pass Details

Date: 23 May 2024
Orbit: 798 x 813 km, 98.7° (Epoch: 21 June)

Event Time Altitude Azimuth Distance (km) Brightness Sun altitude
Rises 02:04:49 0° 14° (NNE) 3,320 6.8 -11.9°
Reaches altitude 10° 02:07:09 10° 13° (NNE) 2,385 5.8 -11.7°
Maximum altitude 02:12:25 80° 288° (WNW) 819 2.1 -11.2°
Enters shadow 02:17:05 13° 203° (SSW) 2,146 3.7 -10.7°
